x

9449880 - Friday Harbor, Wa (frdw1) Weather Station

11:36 - Mon 2nd May 2016 All times are PDT. -7 hours from GMT.

  • Wind
    5mph, 7mph gusts
  • Sea Temp 51°f
  • Ar Temp 68°f
  • Sea Pressure 1015mb
  • 9449880 - Friday Harbor, Wa
  • 9449880 - Friday Harbor, Wa

More Historic Weather Station data

Upgrade to MSW Pro to gain access to the past 30 days of data for over 8000 Wavebouys and Weather Stations around the globe.

Join Pro

Comparision Forecast

View Surf forecast
   
Seg 05/02 11:36 5 7 mph 1015mb 51f 68f
11:30 2 6 mph 1015mb 51f 69f
11:24 3 6 mph 1015mb 51f 68f
11:18 2 6 mph 1015mb 51f 69f
11:12 5 8 mph 1015mb 51f 69f
11:06 2 7 mph 1015mb 51f 69f
11:00 6 9 mph 1015mb 51f 68f
10:36 5 7 mph 1015mb 51f 67f
10:30 6 9 mph 1015.1mb 51f 66f
10:24 6 10 mph 1015mb 51f 66f
10:18 7 9 mph 1014.9mb 51f 65f
10:12 7 11 mph 1015mb 51f 65f
10:06 7 10 mph 1015mb 51f 65f
10:00 6 11 mph 1015mb 51f 65f
9:36 3 7 mph 1015.1mb 51f 63f
9:30 6 7 mph 1015.1mb 51f 63f
9:24 6 7 mph 1015.2mb 51f 63f
9:18 5 7 mph 1015.2mb 51f 64f
9:12 5 8 mph 1015.2mb 51f 62f
9:06 5 6 mph 1015.2mb 51f 63f
9:00 5 6 mph 1015.3mb 51f 62f
8:36 6 14 mph 1015.3mb 51f 57f
8:30 8 14 mph 1015.3mb 51f 60f
8:24 6 15 mph 1015.2mb 51f 58f
8:18 7 14 mph 1015.2mb 51f 59f
8:12 6 14 mph 1015.2mb 51f 60f
8:06 6 16 mph 1015.2mb 51f 57f
8:00 3 7 mph 1015.2mb 51f 59f
7:36 2 3 mph 1015.2mb 51f 57f
7:30 2 3 mph 1015.1mb 51f 56f
7:24 1 9 mph 1015.1mb 51f 57f
7:18 3 10 mph 1015mb 51f 56f
7:12  -  3 mph 1015mb 51f 58f
7:06  -  2 mph 1015mb 51f 56f
7:00 1 3 mph 1014.9mb 51f 54f
6:36 2 3 mph 1014.9mb 51f 51f
6:30 1 3 mph 1014.9mb 51f 50f
6:24 2 5 mph 1014.9mb 51f 51f
6:18  -  1 mph 1014.8mb 51f 52f
6:12 2 3 mph 1014.8mb 51f 50f
6:06  -  1 mph 1014.8mb 51f 51f
6:00 1
mph
1014.7mb 51f 50f
5:36  -  1 mph 1014.5mb 51f 50f
5:30  -  2 mph 1014.5mb 51f 50f
5:24 1 3 mph 1014.5mb 51f 50f
5:18 2 3 mph 1014.4mb 51f 49f
5:12 1 2 mph 1014.4mb 51f 51f
5:06 1 2 mph 1014.3mb 51f 51f
5:00 1 2 mph 1014.3mb 51f 51f
4:36  -  1 mph 1014.4mb 51f 50f
4:30  -  2 mph 1014.4mb 51f 51f
4:24  -  2 mph 1014.4mb 51f 50f
4:18 1 2 mph 1014.4mb 51f 50f
4:12 1 2 mph 1014.5mb 51f 50f
4:06  -  1 mph 1014.5mb 51f 51f
4:00  -  1 mph 1014.5mb 51f 50f
3:36  -  1 mph 1014.6mb 51f 50f
3:30  -  1 mph 1014.6mb 51f 50f
3:24 1 3 mph 1014.6mb 51f 50f
3:18 2
mph
1014.6mb 51f 50f
3:12  -  1 mph 1014.5mb 51f 51f
3:06 2
mph
1014.5mb 51f 51f
3:00  -  mph 1014.5mb 51f 50f
2:36  -  1 mph 1014.5mb 51f 51f
2:30  -  1 mph 1014.5mb 51f 51f
2:24  -  2 mph 1014.5mb 51f 52f
2:18  -  2 mph 1014.5mb 51f 51f
2:12 2
mph
1014.5mb 51f 51f
2:06  -  1 mph 1014.5mb 51f 51f
2:00  -  1 mph 1014.4mb 51f 51f
1:36 2 3 mph 1014.3mb 51f 51f
1:30 2 3 mph 1014.4mb 51f 52f
1:24  -  2 mph 1014.4mb 51f 51f
1:18  -  2 mph 1014.4mb 51f 51f
1:12  -  2 mph 1014.4mb 51f 51f
1:06  -  2 mph 1014.4mb 51f 51f
1:00 1 2 mph 1014.4mb 51f 51f
12:36 2 3 mph 1014.4mb 51f 53f
12:30 2 5 mph 1014.4mb 51f 53f
12:24 2
mph
1014.4mb 51f 52f
12:18  -  1 mph 1014.4mb 51f 52f
12:12  -  2 mph 1014.6mb 51f 52f
12:06  -  1 mph 1014.6mb 51f 53f
12:00  -  mph 1014.6mb 51f 53f
Dom 05/01 11:36  -  mph 1014.5mb 51f 54f
11:30  -  mph 1014.5mb 51f 54f
11:24  -  1 mph 1014.4mb 51f 54f
11:18 1 2 mph 1014.5mb 51f 53f
11:12 2
mph
1014.5mb 51f 53f
11:06 2 3 mph 1014.5mb 51f 53f
11:00 2
mph
1014.6mb 51f 54f
10:36 2
mph
1014.5mb 51f 55f
10:30 1 3 mph 1014.4mb 51f 55f
10:24 3 5 mph 1014.5mb 51f 55f
10:18  -  2 mph 1014.3mb 51f 56f
10:12 1 2 mph 1014.3mb 51f 56f
10:06 1 3 mph 1014.4mb 51f 55f
10:00 2 3 mph 1014.4mb 51f 55f
9:36  -  2 mph 1014.2mb 52f 57f
9:30 2 3 mph 1014.2mb 52f 57f
9:24 2
mph
1014.2mb 52f 57f
9:18  -  1 mph 1014.2mb 52f 57f
9:12  -  2 mph 1014.2mb 52f 56f
9:06 1 2 mph 1014.2mb 52f 57f
9:00  -  2 mph 1014.2mb 52f 57f
8:36 2 3 mph 1014mb 52f 58f
8:30 3
mph
1014mb 52f 58f
8:24  -  1 mph 1013.9mb 52f 61f
8:18  -  2 mph 1013.9mb 52f 60f
8:12  -  3 mph 1013.9mb 52f 60f
8:06 2 3 mph 1014mb 52f 59f
8:00 1 3 mph 1013.9mb 52f 60f
7:36 1 3 mph 1014mb 52f -
7:30  -  2 mph 1014.1mb 52f -
7:24  -  2 mph 1014.1mb 52f -
7:18 2 3 mph 1014.2mb 52f -
7:12 2
mph
1014.2mb 52f -
7:06 1 5 mph 1014.3mb 52f -
7:00  -  2 mph 1014.4mb 52f -
6:36 2 3 mph - 52f 65f
6:30  -  1 mph - 52f 65f
6:24  -  1 mph - 52f 65f
6:18  -  2 mph - 52f 65f
6:12  -  2 mph - 52f 65f
6:06 1 3 mph - 52f 65f
6:00  -  2 mph - 52f 67f
5:36  -  mph 1015.5mb 52f 67f
5:30  -  mph 1015.6mb 52f 67f
5:24  -  mph 1015.7mb 52f 68f
5:18  -  mph 1015.9mb 52f 68f
5:12  -  mph 1016mb 52f 69f
5:06  -  mph 1016.1mb 52f 68f
5:00  -  mph 1016.2mb 53f 68f
4:36  -  mph 1016.6mb 53f 68f
4:30  -  mph 1016.7mb 53f 67f
4:24  -  mph 1016.8mb 52f 67f
4:18  -  mph 1016.9mb 52f 68f
4:12  -  mph 1017mb 52f 69f
4:06  -  mph 1017mb 52f 67f
4:00  -  mph 1017.1mb 52f 67f
3:36  -  mph 1017.4mb 52f -
3:30  -  mph 1017.5mb 52f -
3:24  -  mph 1017.6mb 52f -
3:18  -  mph 1017.7mb 52f -
3:12  -  mph 1017.8mb 52f -
3:06  -  mph 1018mb 52f -
3:00  -  mph 1018.1mb 52f -
2:36 3 6 mph 1018.6mb 51f 65f
2:30 1 6 mph 1018.8mb 52f 65f
2:24 2 6 mph 1018.8mb 52f 65f
2:18 1 3 mph 1018.9mb 51f 65f
2:12 1 5 mph 1019.1mb 51f 65f
2:06 2 7 mph 1019.1mb 51f 64f
2:00 2 7 mph 1019.2mb 51f 64f
1:36 3 7 mph 1019.4mb 51f 63f
1:30 2 6 mph 1019.6mb 51f 63f
1:24 2 6 mph 1019.7mb 51f 64f
1:18 3 7 mph 1019.8mb 51f 63f
1:12 3 6 mph 1019.9mb 51f 62f
1:06 3 7 mph 1020mb 51f 63f
1:00 2 7 mph 1020.1mb 51f 63f
12:36 3 8 mph 1020.5mb 51f 62f
12:30 2 7 mph 1020.5mb 51f 62f
12:24 2 8 mph 1020.6mb 51f 62f
12:18 2 8 mph 1020.7mb 51f 61f
12:12 2 6 mph 1020.9mb 51f 62f
12:06 2 6 mph 1021mb 51f 62f
12:00 3 7 mph 1021mb 51f 61f
11:54 3 7 mph 1021.1mb 51f 61f
11:48 3 7 mph 1021.2mb 51f 62f
11:36 3 7 mph 1021.4mb 51f 61f
11:30 2 6 mph 1021.4mb 51f 61f
11:24 3 6 mph 1021.6mb 51f 62f
11:18 2 5 mph 1021.6mb 51f 62f
11:12 2 6 mph 1021.6mb 51f 62f
11:06 2 7 mph 1021.7mb 51f 61f
11:00 2 6 mph 1021.8mb 51f 61f
10:54 2 7 mph 1021.8mb 51f 62f
10:48 2 5 mph 1022mb 51f 61f
10:36 2 6 mph 1022.2mb 51f 61f
10:30 5 7 mph 1022.2mb 51f 60f
10:24 3 7 mph 1022.3mb 51f 60f
10:18 1 7 mph 1022.4mb 51f 60f
10:12 6 9 mph 1022.5mb 51f 59f
10:06 5 8 mph 1022.6mb 51f 59f
10:00 6 11 mph 1022.7mb 51f 59f
9:54 5 9 mph 1022.7mb 51f 59f
9:48 6 9 mph 1022.8mb 51f 59f
9:36 5 8 mph 1023.1mb 51f 58f
9:30 5 8 mph 1023.2mb 51f 58f
9:24 6 8 mph 1023.2mb 51f 58f
9:18 5 9 mph 1023.3mb 51f 58f
9:12 2 6 mph 1023.3mb 51f 58f
9:06 3 8 mph 1023.4mb 51f 58f
9:00 2 5 mph 1023.5mb 51f 58f
8:54 2 6 mph 1023.6mb 51f 57f
8:48 2 7 mph 1023.6mb 51f 56f
8:36 1 5 mph 1023.7mb 51f 57f
8:30 2 7 mph 1023.7mb 51f 56f
8:24  -  3 mph 1023.7mb 51f 55f
8:18 2 3 mph 1023.8mb 51f 53f
8:12 1 3 mph 1023.9mb 51f 52f
8:06 2 3 mph 1023.9mb 51f 51f
8:00 2 3 mph 1023.8mb 51f 51f
7:54 3 5 mph 1023.9mb 51f 50f
7:48 3 5 mph 1024mb 51f 49f
7:36 2 3 mph 1024mb 51f 49f
7:30 2 3 mph 1024mb 51f 49f
7:24 1 3 mph 1024.1mb 51f 49f
7:18 1 2 mph 1024.1mb 51f 48f
7:12  -  2 mph 1024.2mb 51f 51f
7:06  -  2 mph 1024.2mb 51f 48f
7:00 2 3 mph 1024.3mb 51f 47f
6:36  -  2 mph 1024.3mb 51f 46f
6:30 1 2 mph 1024.3mb 51f 46f
6:24 1 3 mph 1024.3mb 51f 45f
6:18 2 3 mph 1024.4mb 51f 45f
6:12 2
mph
1024.3mb 51f 45f
6:06  -  2 mph 1024.3mb 51f 45f
6:00 2 3 mph 1024.4mb 51f 44f
5:54 2
mph
1024.4mb 51f 44f
5:48 2
mph
1024.4mb 51f 45f
5:36  -  1 mph 1024.5mb 51f 45f
5:30 1 2 mph 1024.5mb 51f 45f
5:24 1 2 mph 1024.5mb 51f 45f
5:18 2 3 mph 1024.6mb 51f 44f
5:12 2
mph
1024.5mb 51f 45f
5:06  -  1 mph 1024.5mb 51f 46f
5:00  -  1 mph 1024.6mb 51f 46f
4:54  -  2 mph 1024.6mb 51f 45f
4:48 2 3 mph 1024.7mb 51f 45f
4:36  -  mph 1024.8mb 51f 46f
4:30  -  mph 1024.9mb 51f 45f
4:24  -  2 mph 1024.9mb 51f 46f
4:18  -  1 mph 1025mb 51f 46f
4:12  -  1 mph 1025mb 51f 46f
4:06  -  2 mph 1025.1mb 51f 46f
4:00  -  1 mph 1025.1mb 51f 46f
3:54 1 2 mph 1025.1mb 51f 45f
3:48 2
mph
1025.2mb 51f 45f
3:36  -  mph 1025.1mb 51f 46f
3:30  -  mph 1025.1mb 51f 46f
3:24  -  mph 1025.2mb 51f 47f
3:18  -  1 mph 1025.2mb 51f 47f
3:12  -  mph 1025.3mb 51f 46f
3:06  -  1 mph 1025.3mb 51f 46f
3:00 1 2 mph 1025.4mb 51f 46f
2:54 1
mph
1025.4mb 51f 46f
2:48 1
mph
1025.4mb 51f 46f
2:36  -  mph 1025.4mb 51f 46f
2:30  -  1 mph 1025.4mb 51f 46f
2:24 1 2 mph 1025.4mb 51f 46f
2:18 2
mph
1025.5mb 51f 46f
2:12 1 2 mph 1025.5mb 51f 46f
2:06 2 3 mph 1025.5mb 51f 46f
2:00 3 5 mph 1025.7mb 51f 46f
1:54 2 3 mph 1025.7mb 51f 46f
1:48 2
mph
1025.7mb 51f 46f
1:36 1 2 mph 1025.8mb 51f 47f
1:30 1 3 mph 1025.9mb 51f 47f
1:24 2 3 mph 1025.9mb 51f 47f
1:18 3 5 mph 1025.9mb 51f 46f
1:12 3 5 mph 1026mb 51f 47f
1:06 2
mph
1026mb 51f 47f
1:00 2
mph
1026mb 51f 47f
12:54 2 3 mph 1026.1mb 51f 47f
12:48 3
mph
1026.1mb 51f 47f
12:36 2
mph
1026.1mb 51f 48f
12:30  -  1 mph 1026.1mb 51f 48f
12:24  -  mph 1026.1mb 51f 48f
12:18  -  1 mph 1026.1mb 51f 47f
12:12 1 3 mph 1026.2mb 51f 47f
12:06 3
mph
1026.2mb 51f 47f
12:00 2 3 mph 1026.2mb 51f 48f
Sáb 04/30 11:54  -  2 mph 1026.2mb 51f 49f
11:48  -  1 mph 1026.2mb 51f 49f
11:36  -  2 mph 1026.2mb 51f 49f
11:30 2
mph
1026.3mb 51f 49f
11:24 1 2 mph 1026.3mb 51f 49f
11:18  -  1 mph 1026.3mb 51f 49f
11:12  -  mph 1026.4mb 51f 49f
11:06  -  1 mph 1026.4mb 51f 50f
11:00 1 2 mph 1026.5mb 51f 50f
10:54 1 2 mph 1026.5mb 51f 50f
10:48  -  3 mph 1026.5mb 51f 50f
10:36 1 2 mph 1026.6mb 51f 50f
10:30 1 2 mph 1026.6mb 51f 51f
10:24  -  2 mph 1026.5mb 51f 51f
10:18  -  1 mph 1026.5mb 51f 52f
10:12  -  1 mph 1026.5mb 51f 52f
10:06  -  1 mph 1026.5mb 51f 53f
10:00 1 3 mph 1026.6mb 51f 54f
9:54 1 3 mph 1026.7mb 51f 53f
9:48 2 3 mph 1026.7mb 51f 53f
9:36 2
mph
1026.6mb 51f 53f
9:30  -  1 mph 1026.6mb 52f 53f
9:24  -  1 mph 1026.6mb 52f 53f
9:18  -  1 mph 1026.6mb 52f 53f
9:12  -  1 mph 1026.6mb 52f 54f
9:06  -  1 mph 1026.6mb 52f 54f
9:00  -  1 mph 1026.6mb 52f 54f
8:54  -  1 mph 1026.5mb 52f 55f
8:48  -  1 mph 1026.5mb 52f 55f
8:36  -  2 mph 1026.4mb 52f 56f
8:30 1 3 mph 1026.4mb 52f 56f
8:24 1 2 mph 1026.4mb 52f 56f
8:18  -  1 mph 1026.4mb 52f 57f
8:12 1 2 mph 1026.4mb 52f 58f
8:06 1 2 mph 1026.3mb 52f 58f
8:00 1 2 mph 1026.3mb 51f 57f
7:54  -  1 mph 1026.3mb 51f 56f
7:48 1 3 mph 1026.3mb 51f 56f
7:36  -  mph 1026.3mb 52f 57f
7:30  -  mph 1026.3mb 52f 57f
7:24  -  mph 1026.3mb 52f 58f
7:18  -  mph 1026.2mb 52f 59f
7:12  -  mph 1026.2mb 52f 58f
7:06  -  mph 1026.3mb 52f 58f
7:00  -  mph 1026.4mb 52f 58f
6:54  -  mph 1026.4mb 52f 58f
6:48  -  mph 1026.4mb 52f 59f
6:36  -  mph 1026.4mb 52f 61f
6:30  -  mph 1026.5mb 52f 60f
6:24  -  mph 1026.6mb 52f 60f
6:18  -  mph 1026.6mb 52f 61f
6:12  -  mph 1026.7mb 52f 60f
6:06  -  mph 1026.8mb 52f 59f
6:00  -  mph 1026.8mb 52f 59f
5:54  -  mph 1026.8mb 52f 58f
5:48  -  mph 1026.9mb 52f 58f
5:36  -  mph 1026.9mb 52f 61f
5:30  -  mph 1027mb 52f 61f
5:24  -  mph 1027mb 52f 60f
5:18  -  mph 1027.1mb 52f 60f
5:12  -  mph 1027.1mb 52f 60f
5:06  -  mph 1027.2mb 52f 59f
5:00  -  mph 1027.3mb 52f 60f
4:54  -  mph 1027.3mb 52f 59f
4:48  -  mph 1027.3mb 52f 59f
4:36  -  mph 1027.3mb 52f 60f
3:36  -  mph 1027.5mb 51f 61f
3:30  -  mph 1027.6mb 51f 61f
3:24  -  mph 1027.5mb 51f 60f
3:18  -  mph 1027.6mb 51f 60f
3:12  -  mph 1027.7mb 51f 60f
3:06  -  mph 1027.7mb 51f 59f
3:00  -  mph 1027.8mb 51f 60f
2:54  -  mph 1027.7mb 51f 60f
2:48  -  mph 1027.7mb 51f 59f
2:36 8 13 mph 1027.8mb 51f 59f
2:30 7 11 mph 1027.8mb 51f 59f
2:24 6 10 mph 1027.8mb 51f 59f
2:18 9 11 mph 1027.8mb 51f 58f
2:12 9 11 mph 1027.8mb 51f 57f
2:06 9 13 mph 1027.8mb 51f 58f
2:00 8 11 mph 1027.9mb 51f 58f
1:54 7 11 mph 1028mb 51f 58f
1:48 6 11 mph 1028.1mb 51f 58f
1:36 8 11 mph 1028.2mb 51f 57f
1:30 8 13 mph 1028.2mb 51f 57f
1:24 8 13 mph 1028.2mb 51f 56f
1:18 8 11 mph 1028.3mb 51f 56f
1:12 7 11 mph 1028.3mb 51f 57f
1:06 8 10 mph 1028.3mb 51f 56f
1:00 8 10 mph 1028.4mb 51f 56f
12:54 7 10 mph 1028.5mb 51f 56f
12:48 6 10 mph 1028.5mb 51f 56f
12:36 7 13 mph 1028.6mb 51f 56f
12:30 7 13 mph 1028.6mb 51f 56f
12:24 8 13 mph 1028.6mb 51f 55f
12:18 8 15 mph 1028.6mb 51f 55f
12:12 8 11 mph 1028.5mb 51f 55f
12:06 9 11 mph 1028.6mb 50f 55f
12:00 9 11 mph 1028.6mb 50f 55f
11:54 8 10 mph 1028.5mb 50f 55f
11:48 7 13 mph 1028.6mb 50f 55f
11:36 9 11 mph 1028.6mb 50f 54f
11:30 9 11 mph 1028.6mb 50f 54f
11:24 8 11 mph 1028.5mb 50f 54f
11:18 9 11 mph 1028.6mb 50f 54f
11:12 9 11 mph 1028.6mb 50f 54f
11:06 8 10 mph 1028.6mb 50f 54f
11:00 6 10 mph 1028.7mb 50f 54f
10:54 7 10 mph 1028.7mb 50f 54f
10:48 7 10 mph 1028.7mb 50f 54f
10:36 7 13 mph 1028.8mb 50f 54f
10:30 6 11 mph 1028.7mb 50f 54f
10:24 7 9 mph 1028.7mb 50f 53f
10:18 3 8 mph 1028.6mb 50f 54f
10:12 5 9 mph 1028.6mb 50f 54f
10:06 5 8 mph 1028.6mb 50f 53f
10:00 7 9 mph 1028.7mb 51f 53f
9:54 3 9 mph 1028.7mb 51f 53f
9:48 2 8 mph 1028.8mb 51f 54f
9:36 6 8 mph 1028.8mb 51f 53f
9:30 7 11 mph 1028.8mb 51f 52f
9:24 7 11 mph 1028.8mb 51f 52f
9:18 7 10 mph 1028.8mb 51f 51f
9:12 6 9 mph 1028.8mb 51f 51f
9:06 6 8 mph 1028.8mb 51f 51f
9:00 6 8 mph 1028.7mb 50f 50f
8:54 7 8 mph 1028.7mb 50f 50f
8:48 6 8 mph 1028.7mb 50f 50f
8:36 3 6 mph 1028.6mb 50f 49f
8:30 2 3 mph 1028.6mb 50f 49f
8:24 2 3 mph 1028.6mb 50f 49f
8:18 2 3 mph 1028.6mb 50f 49f
8:12 3
mph
1028.6mb 50f 49f
8:06  -  2 mph 1028.5mb 50f 49f
8:00 1 2 mph 1028.5mb 50f 49f
7:54 1 2 mph 1028.4mb 50f 49f
7:48 1 2 mph 1028.3mb 50f 48f
7:36  -  1 mph 1028.3mb 50f 47f
7:30 1 2 mph 1028.3mb 50f 47f
7:24 1 2 mph 1028.2mb 50f 46f
7:18 1 2 mph 1028.2mb 51f 46f
7:12 1 2 mph 1028.1mb 51f 46f
7:06  -  2 mph 1028mb 51f 46f
7:00 2 3 mph 1028mb 51f 44f
6:54 2 3 mph 1027.9mb 51f 45f
6:48  -  2 mph 1027.8mb 51f 45f
6:36  -  mph 1027.7mb 51f 46f
6:30  -  1 mph 1027.6mb 51f 45f
6:24 1 3 mph 1027.6mb 51f 44f
6:18 3 5 mph 1027.5mb 51f 43f
6:12 3 5 mph 1027.5mb 51f 43f
6:06 3 5 mph 1027.3mb 51f 44f
6:00 1 2 mph 1027.2mb 51f 44f
5:54 2 3 mph 1027.2mb 51f 44f
5:48 2 3 mph 1027.1mb 51f 44f
5:36 3
mph
1027mb 51f 44f
5:30 2 3 mph 1027mb 51f 44f
5:24 2 3 mph 1027mb 51f 44f
5:18 3 5 mph 1027mb 51f 44f
5:12 3 5 mph 1027mb 51f 44f
5:06 2 3 mph 1026.9mb 51f 44f
5:00 2 3 mph 1026.8mb 51f 44f
4:54 2 3 mph 1026.8mb 51f 44f
4:48 2 3 mph 1026.8mb 51f 44f
4:36 3
mph
1026.5mb 51f 44f
4:30 2 3 mph 1026.5mb 51f 44f
4:24 3 5 mph 1026.4mb 51f 44f
4:18 5
mph
1026.4mb 51f 44f
4:12 2 3 mph 1026.4mb 51f 44f
4:06 3 5 mph 1026.3mb 51f 44f
4:00 2
mph
1026.3mb 51f 45f
3:54  -  2 mph 1026.2mb 51f 45f
3:48  -  1 mph 1026.2mb 51f 45f
3:36 2 3 mph 1026.1mb 51f 45f
3:30 3
mph
1026mb 51f 45f
3:24 1 3 mph 1026mb 51f 45f
3:18  -  3 mph 1025.9mb 51f 45f
3:12 2 3 mph 1025.9mb 51f 45f
3:06 2
mph
1025.8mb 50f 45f
3:00  -  2 mph 1025.8mb 50f 46f
2:54  -  1 mph 1025.7mb 50f 46f
2:48  -  2 mph 1025.6mb 50f 46f
2:36  -  1 mph 1025.4mb 51f 46f
2:30  -  1 mph 1025.3mb 51f 46f
2:24  -  mph 1025.2mb 51f 46f
2:18  -  1 mph 1025.2mb 51f 46f
2:12 1 2 mph 1025.1mb 51f 46f
2:06  -  3 mph 1025.1mb 51f 45f
2:00 2
mph
1025mb 51f 46f
1:54  -  2 mph 1024.9mb 51f 46f
1:48  -  1 mph 1024.8mb 51f 46f
1:36  -  1 mph 1024.8mb 51f 47f
1:30  -  1 mph 1024.7mb 51f 47f
1:24  -  2 mph 1024.8mb 51f 47f
1:18  -  1 mph 1024.8mb 51f 47f
1:12 1 2 mph 1024.7mb 51f 47f
1:06  -  1 mph 1024.6mb 50f 47f
1:00  -  2 mph 1024.5mb 50f 47f
12:54  -  1 mph 1024.4mb 50f 47f
12:48  -  1 mph 1024.3mb 50f 47f
12:36  -  1 mph 1024.2mb 50f 47f
12:30  -  2 mph 1024.2mb 50f 47f
12:24  -  1 mph 1024.2mb 50f 47f
12:18  -  2 mph 1024.1mb 50f 47f
12:12 1 3 mph 1024mb 50f 47f
12:06 2 3 mph 1023.9mb 50f 47f
12:00  -  2 mph 1023.9mb 50f 48f
Sex 04/29 11:36 2
mph
1023.7mb 50f 47f
11:30 2 3 mph 1023.6mb 50f 48f
11:24 1 2 mph 1023.6mb 50f 48f
11:18 1 2 mph 1023.5mb 50f 48f
11:12  -  2 mph 1023.4mb 50f 48f
11:06 1 2 mph 1023.4mb 50f 48f
11:00  -  2 mph 1023.4mb 50f 48f
10:54  -  2 mph 1023.4mb 50f 48f
10:48  -  mph 1023.3mb 50f 48f
10:36  -  3 mph 1023.2mb 50f 49f
10:30 3
mph
1023.1mb 50f 49f
10:24  -  2 mph 1023mb 50f 50f
10:18  -  2 mph 1023mb 50f 50f
10:12  -  1 mph 1022.9mb 50f 50f
10:06  -  mph 1022.8mb 50f 50f
10:00  -  1 mph 1022.8mb 50f 51f
9:54  -  1 mph 1022.7mb 50f 51f
9:48  -  1 mph 1022.6mb 50f 51f
9:36  -  1 mph 1022.5mb 50f 51f
9:30  -  mph 1022.4mb 50f 51f
9:24  -  mph 1022.3mb 50f 51f
9:18  -  mph 1022.2mb 50f 51f
9:12  -  2 mph 1022mb 50f 52f
9:06 2 3 mph 1021.9mb 50f 52f
9:00 2 3 mph 1021.9mb 50f 52f
8:54 2
mph
1021.7mb 50f 53f
8:48 2 3 mph 1021.7mb 50f 52f
8:36 1 2 mph 1021.5mb 51f 53f
8:30 1 2 mph 1021.4mb 51f 53f
8:24 2 3 mph 1021.4mb 51f 53f
8:18 3 5 mph 1021.3mb 51f 53f
8:12 2 3 mph 1021.3mb 51f 53f
8:06 2 5 mph 1021.2mb 51f 53f
8:00 3 5 mph 1021.1mb 51f 53f
7:54 3 5 mph 1021.1mb 51f 53f
7:48 1 2 mph 1021mb 51f 54f
7:36  -  mph 1020.9mb 51f 53f
7:30  -  mph 1020.8mb 51f 53f
7:24  -  mph 1020.7mb 51f 53f
7:18  -  mph 1020.7mb 51f 54f
7:12  -  mph 1020.7mb 51f 55f
7:06  -  mph 1020.7mb 51f 55f
7:00  -  mph 1020.6mb 51f 56f
6:54  -  mph 1020.6mb 51f 57f
6:48  -  mph 1020.5mb 51f 57f
6:36  -  mph 1020.5mb 52f 56f
6:30  -  mph 1020.5mb 52f 56f
6:24  -  mph 1020.5mb 52f 56f
6:18  -  mph 1020.5mb 52f 55f
6:12  -  mph 1020.5mb 52f 55f
6:06  -  mph 1020.5mb 52f 55f
6:00  -  mph 1020.5mb 52f 54f
5:54  -  mph 1020.5mb 52f 54f
5:48  -  mph 1020.5mb 53f 54f
5:36  -  mph 1020.4mb 52f 55f
5:30  -  mph 1020.3mb 52f 55f
5:24  -  mph 1020.4mb 52f 56f
5:18  -  mph 1020.3mb 52f 57f
5:12  -  mph 1020.2mb 52f 57f
5:06  -  mph 1020.2mb 52f 57f
5:00  -  mph 1020.1mb 51f 57f
4:54  -  mph 1020mb 51f 58f
4:48  -  mph 1020mb 51f 57f
4:36  -  mph 1019.9mb 51f 58f
4:30  -  mph 1019.9mb 51f 58f
4:24  -  mph 1019.8mb 51f 58f
4:18  -  mph 1019.9mb 51f 59f
4:12  -  mph 1019.9mb 51f 59f
4:06  -  mph 1019.9mb 51f 59f
4:00  -  mph 1019.9mb 51f 59f
3:54  -  mph 1019.9mb 51f 58f
3:48  -  mph 1020mb 51f 58f
3:36  -  mph 1019.9mb 51f 58f
3:30  -  mph 1020mb 51f 57f
3:24  -  mph 1020mb 51f 58f
3:18  -  mph 1020.1mb 51f 58f
3:12  -  mph 1020.1mb 51f 57f
3:06  -  mph 1020.1mb 51f 57f
3:00  -  mph 1020.1mb 51f 57f
2:54  -  mph 1020.1mb 51f 57f
2:48  -  mph 1020.1mb 51f 57f
2:36 11 14 mph 1020mb 51f 57f
2:30 13 16 mph 1020mb 51f 56f
2:24 11 15 mph 1019.9mb 51f 57f
2:18 13 15 mph 1019.9mb 51f 56f
2:12 14 16 mph 1019.9mb 51f 56f
2:06 15 17 mph 1019.8mb 51f 56f
2:00 15 18 mph 1019.7mb 51f 56f
1:54 11 17 mph 1019.7mb 51f 57f
1:48 13 15 mph 1019.7mb 51f 56f
1:36 9 14 mph 1019.7mb 51f 56f
1:30 10 14 mph 1019.7mb 51f 56f
1:24 8 13 mph 1019.7mb 51f 56f
1:18 10 15 mph 1019.7mb 51f 56f
1:12 9 14 mph 1019.7mb 51f 55f
1:06 8 10 mph 1019.7mb 51f 56f
1:00 7 10 mph 1019.7mb 51f 56f
12:54 6 8 mph 1019.7mb 51f 56f
12:48 8 10 mph 1019.7mb 51f 56f
12:36 8 10 mph 1019.6mb 51f 55f
12:30 5 7 mph 1019.6mb 51f 56f
12:24 2 7 mph 1019.6mb 51f 56f
12:18 3 7 mph 1019.6mb 51f 55f
12:12 3
mph
1019.6mb 51f 55f
12:06 2 6 mph 1019.6mb 51f 55f
12:00 3 5 mph 1019.6mb 50f 54f
11:54 5 6 mph 1019.6mb 50f 53f
11:48 6 8 mph 1019.6mb 50f 53f
11:36 9 10 mph 1019.5mb 50f 53f
11:30 7 9 mph 1019.5mb 50f 53f
11:24 8 9 mph 1019.6mb 50f 54f
11:18 5 6 mph 1019.7mb 50f 53f
11:12 2 6 mph 1019.7mb 50f 53f
11:06 6 7 mph 1019.7mb 50f 52f
11:00 3 8 mph 1019.7mb 50f 53f
10:54 6 8 mph 1019.6mb 50f 53f
10:48 3 6 mph 1019.6mb 50f 53f
10:36 3 7 mph 1019.5mb 50f 53f
10:30 7
mph
1019.5mb 50f 52f
10:24 6 7 mph 1019.5mb 50f 52f
10:18 5 6 mph 1019.5mb 50f 52f
10:12 5 6 mph 1019.5mb 50f 51f
10:06 6 7 mph 1019.4mb 50f 51f
10:00 6 7 mph 1019.4mb 50f 51f
9:54 6
mph
1019.4mb 50f 51f
9:48 5 6 mph 1019.4mb 50f 51f
9:36 5 6 mph 1019.4mb 50f 51f
9:30 5 6 mph 1019.3mb 50f 51f
9:24 5
mph
1019.3mb 50f 51f
9:18 5 6 mph 1019.2mb 50f 51f
9:12 5 6 mph 1019.2mb 50f 51f
9:06 6 8 mph 1019.2mb 50f 51f
9:00 6 8 mph 1019.1mb 50f 51f
8:54 5 7 mph 1019mb 50f 51f
8:48 7 9 mph 1019mb 50f 51f
8:36 3 6 mph 1018.9mb 50f 50f
8:30 3
mph
1018.8mb 50f 50f
8:24 2 3 mph 1018.8mb 50f 50f
8:18 2
mph
1018.7mb 50f 50f
8:12 2
mph
1018.6mb 50f 49f
8:06 2
mph
1018.6mb 50f 49f
8:00 1 2 mph 1018.6mb 50f 49f
7:54  -  1 mph 1018.6mb 50f 49f
7:48  -  mph 1018.6mb 50f 49f
7:36  -  mph 1018.5mb 50f 49f
7:30  -  mph 1018.5mb 50f 49f
7:24  -  2 mph 1018.4mb 50f 49f
7:18  -  1 mph 1018.4mb 50f 49f
7:12  -  1 mph 1018.4mb 50f 49f
7:06  -  1 mph 1018.3mb 50f 49f
7:00  -  1 mph 1018.4mb 50f 49f
6:54  -  1 mph 1018.3mb 50f 48f
6:48  -  mph 1018.3mb 50f 48f
6:36 1
mph
1018.3mb 50f 49f
6:30  -  1 mph 1018.3mb 50f 49f
6:24  -  1 mph 1018.3mb 50f 49f
6:18  -  1 mph 1018.3mb 50f 48f
6:12 1 2 mph 1018.2mb 50f 49f
6:06 1 2 mph 1018.2mb 50f 48f
6:00 1 2 mph 1018.1mb 50f 48f
5:54 1 2 mph 1018.1mb 50f 49f
5:48  -  mph 1018.1mb 50f 48f
5:36  -  1 mph 1018.1mb 50f 48f
5:30 1
mph
1018mb 50f 48f
5:24  -  1 mph 1018mb 50f 48f
5:18 1
mph
1018mb 50f 49f
5:12 1 2 mph 1018mb 50f 49f
5:06  -  1 mph 1018mb 50f 49f
5:00 1
mph
1017.9mb 50f 48f
4:54 1 2 mph 1018mb 50f 49f
4:48  -  1 mph 1018mb 50f 49f
4:36  -  2 mph 1018.1mb 50f 49f
4:30  -  2 mph 1018.1mb 50f 49f
4:24 2 3 mph 1018.2mb 50f 49f
4:18 3
mph
1018.2mb 50f 49f
4:12 2 3 mph 1018.2mb 50f 49f
4:06 1 5 mph 1018.2mb 50f 49f
4:00  -  6 mph 1018.3mb 50f 49f
3:54 2 5 mph 1018.3mb 50f 49f
3:48 2 5 mph 1018.3mb 50f 50f
3:36 2 6 mph 1018.3mb 50f 50f
3:30 3 6 mph 1018.3mb 50f 50f
3:24 1 3 mph 1018.3mb 50f 50f
3:18  -  3 mph 1018.3mb 50f 50f
3:12  -  3 mph 1018.3mb 50f 50f
3:06  -  3 mph 1018.3mb 50f 50f
3:00 1 3 mph 1018.2mb 50f 50f
2:54 1 6 mph 1018.2mb 50f 50f
2:48 5 6 mph 1018.2mb 50f 50f
2:36 3 6 mph 1018.2mb 50f -
2:30 2 5 mph 1018.3mb 50f -
2:24  -  1 mph 1018.3mb 50f -
2:18 1 2 mph 1018.3mb 50f -
2:12 1 2 mph 1018.3mb 50f -
2:06 2 3 mph 1018.3mb 50f -
2:00 2 5 mph 1018.4mb 50f -
1:54 1 3 mph 1018.5mb 50f -
1:48 3 5 mph 1018.4mb 50f -
1:36  -  2 mph 1018.4mb 50f 51f
1:30  -  2 mph 1018.4mb 50f 51f
1:24  -  2 mph 1018.4mb 50f 51f
1:18  -  2 mph 1018.5mb 50f 51f
1:12 2 3 mph 1018.5mb 50f 51f
1:06  -  2 mph 1018.5mb 50f 50f
1:00  -  2 mph 1018.6mb 50f 50f
12:54 2 3 mph 1018.5mb 50f 51f
12:48 3 6 mph 1018.5mb 50f 51f
12:36 5 9 mph 1018.4mb 50f 51f
12:30 6 9 mph 1018.5mb 50f 51f
12:24 6 9 mph 1018.5mb 50f 51f
12:18 6 7 mph 1018.5mb 50f 51f
12:12 3 6 mph 1018.4mb 50f 51f
12:06 2 6 mph 1018.4mb 50f 51f
12:00 2 6 mph 1018.4mb 50f 51f
Qui 04/28 11:54 2 6 mph 1018.4mb 50f 51f
11:48 3 7 mph 1018.3mb 50f 51f
11:36 6 8 mph 1018.3mb 50f 51f
11:30 7 8 mph 1018.3mb 50f 51f
11:24 7 8 mph 1018.3mb 50f 51f
11:18 7 9 mph 1018.3mb 50f 51f
11:12 7 9 mph 1018.3mb 50f 51f
11:06 7 8 mph 1018.2mb 50f 51f
11:00 6 10 mph 1018.2mb 50f 51f
10:36 9 11 mph 1018.3mb 50f 51f
10:30 8 10 mph 1018.3mb 50f 51f
10:24 9 10 mph 1018.3mb 50f 51f
10:18 9 10 mph 1018.3mb 50f 51f
10:12 8 10 mph 1018.3mb 50f 51f
10:06 8 11 mph 1018.3mb 50f 51f
10:00 8 10 mph 1018.3mb 50f 51f
9:54 7 9 mph 1018.3mb 50f 51f
9:48 7 11 mph 1018.3mb 50f 51f
9:36 8 13 mph 1018.4mb 50f 51f
9:30 8 13 mph 1018.4mb 50f 51f
9:24 7 11 mph 1018.4mb 50f 52f
9:18 5 8 mph 1018.4mb 50f 52f
9:12 5 9 mph 1018.3mb 50f 52f
9:06 6 10 mph 1018.2mb 50f 52f
9:00 7 10 mph 1018.2mb 50f 53f
8:54 10 14 mph 1018.2mb 50f 53f
8:48 13 16 mph 1018.1mb 50f 53f
8:36 16 18 mph 1018.1mb 50f 54f
8:30 16 20 mph 1018.1mb 50f 54f
8:24 17 22 mph 1018.1mb 50f 55f
8:18 15 18 mph 1018mb 50f 55f
8:12 16 21 mph 1018mb 50f 55f
8:06 17 24 mph 1018mb 50f 55f
8:00 17 24 mph 1018mb 50f 55f
7:54 16 21 mph 1018.1mb 50f 56f
7:48 16 21 mph 1018mb 50f 56f
7:36  -  mph 1018mb 50f 56f